Location: DarkSkies Observatory
(42.5924°N, 71.9747°W)
Time: 07:16:54
(UTC-04:00)

Envisat - Pass Details

Date: 26 July 2018
Orbit: 764 x 766 km, 98.2° (Epoch: 15 October)

Event Time Altitude Azimuth Distance (km) Brightness Sun altitude
Rises 20:43:52 0° 192° (SSW) 3,215 6.0 -5.5°
Reaches altitude 10° 20:46:25 10° 203° (SSW) 2,294 5.4 -5.9°
Maximum altitude 20:50:51 30° 264° (W) 1,337 4.9 -6.6°
Drops below altitude 10° 20:55:19 10° 326° (NW) 2,310 6.8 -7.3°
Sets 20:57:54 0° 337° (NNW) 3,241 7.4 -7.7°
